Weather History for Immokalee Regional Airport [I, FL

Change the Weather History Date:

Monday, December 30, 2013

  Actual Average (KFMY) Record (KFMY)
Temperature  
Mean Temperature 71 °F 64 °F  
Max Temperature 78 °F 75 °F 88 °F (1990)
Min Temperature 64 °F 54 °F 32 °F (1909)
Degree Days  
Heating Degree Days 0 4  
Month to date heating degree days 69  
Since 1 July heating degree days 87  
Cooling Degree Days 6 3  
Month to date cooling degree days 118  
Year to date cooling degree days 3981  
Growing Degree Days 21 (Base 50)    
Moisture  
Dew Point 66 °F    
Average Humidity 89    
Maximum Humidity 100    
Minimum Humidity 57    
Precipitation  
Precipitation 0.00 in 0.06 in 1.20 in (1914)
Month to date precipitation 1.65  
Year to date precipitation 55.87  
Sea Level Pressure  
Sea Level Pressure 30.10 in    
Wind  
Wind Speed 3 mph (North)    
Max Wind Speed 12 mph    
Max Gust Speed 16 mph    
Visibility 10 miles    
Events      
T = Trace of Precipitation, MM = Missing Value Source: NWS Daily Summary

Daily Weather History Graph

Daily Weather History Graph

Search for Another Location

Airport:

Trip Planner

Search our weather history database for the weather conditions in past years. The results will help you decide how hot, cold, wet, or windy it might be!

Date:

Astronomy

Dec. 30, 2013 Rise Set
Actual Time 7:13 AM EST 5:43 PM EST
Civil Twilight 6:47 AM EST 6:08 PM EST
Nautical Twilight 6:19 AM EST 6:37 PM EST
Astronomical Twilight 5:50 AM EST 7:06 PM EST
Moon 5:06 AM EST (12/30) 4:11 PM EST (12/30)
Length of Visible Light 11h 21m
Length of Day
10h 30m
Waning Crescent, 5% of the Moon is Illuminated
Dec 30
Waning Crescent
Jan 1
New
Jan 7
First Quarter
Jan 15
Full
Jan 24
Last Quarter

Hourly Weather History & Observations

Time (EST) Temp. Dew Point Humidity Pressure Visibility Wind Dir Wind Speed Gust Speed Precip Events Conditions
12:15 AM 71.6 °F - N/A% 30.04 in 8.0 mi Calm Calm - 0.00 in   Overcast
12:35 AM 71.6 °F - N/A% 30.04 in 10.0 mi Calm Calm - 0.00 in   Overcast
12:55 AM 71.6 °F - N/A% 30.03 in 10.0 mi Calm Calm - 0.00 in   Scattered Clouds
1:15 AM 69.8 °F - N/A% 30.03 in 10.0 mi Calm Calm - 0.00 in   Scattered Clouds
1:35 AM 69.8 °F - N/A% 30.03 in 10.0 mi Calm Calm - 0.00 in   Partly Cloudy
1:55 AM 69.8 °F - N/A% 30.03 in 10.0 mi Calm Calm - 0.00 in   Clear
2:15 AM 69.8 °F - N/A% 30.03 in 10.0 mi NW 4.6 mph - 0.00 in   Scattered Clouds
2:35 AM 68.0 °F - N/A% 30.03 in 10.0 mi NW 4.6 mph - 0.00 in   Mostly Cloudy
2:55 AM 66.2 °F - N/A% 30.03 in 10.0 mi NNW 4.6 mph - 0.00 in   Overcast
3:15 AM 66.2 °F 66.2 °F 100% 30.03 in 10.0 mi NNW 3.5 mph - 0.00 in   Overcast
3:35 AM 66.2 °F 66.2 °F 100% 30.03 in 10.0 mi Calm Calm - 0.00 in   Overcast
3:55 AM 66.2 °F 66.2 °F 100% 30.03 in 10.0 mi Calm Calm - 0.00 in   Overcast
4:15 AM 66.2 °F 66.2 °F 100% 30.02 in 10.0 mi Calm Calm - 0.00 in   Overcast
4:35 AM 66.2 °F 66.2 °F 100% 30.02 in 10.0 mi NW 4.6 mph - 0.00 in   Mostly Cloudy
4:55 AM 66.2 °F 66.2 °F 100% 30.02 in 10.0 mi NW 3.5 mph - 0.00 in   Mostly Cloudy
5:15 AM 66.2 °F 66.2 °F 100% 30.03 in 10.0 mi Calm Calm - 0.00 in   Overcast
5:35 AM 66.2 °F 66.2 °F 100% 30.04 in 10.0 mi NW 5.8 mph - 0.00 in   Overcast
5:55 AM 66.2 °F 66.2 °F 100% 30.05 in 10.0 mi NW 5.8 mph - 0.00 in   Overcast
6:15 AM 64.4 °F 64.4 °F 100% 30.05 in 10.0 mi NNW 3.5 mph - 0.00 in   Overcast
6:35 AM 64.4 °F 64.4 °F 100% 30.06 in 10.0 mi NNW 3.5 mph - 0.00 in   Overcast
6:55 AM 64.4 °F 64.4 °F 100% 30.07 in 10.0 mi Calm Calm - 0.00 in   Overcast
7:15 AM 64.4 °F 64.4 °F 100% 30.07 in 10.0 mi Calm Calm - 0.00 in   Overcast
7:35 AM 64.4 °F 64.4 °F 100% 30.09 in 10.0 mi NNW 3.5 mph - 0.00 in   Mostly Cloudy
7:55 AM 64.4 °F 64.4 °F 100% 30.10 in 10.0 mi NNW 4.6 mph - 0.00 in   Mostly Cloudy
8:15 AM 64.4 °F 64.4 °F 100% 30.11 in 10.0 mi NNW 3.5 mph - 0.00 in   Overcast
8:35 AM 64.4 °F 64.4 °F 100% 30.12 in 10.0 mi North 5.8 mph - 0.00 in   Overcast
8:55 AM 64.4 °F 64.4 °F 100% 30.12 in 9.0 mi NNW 6.9 mph - 0.00 in   Overcast
9:15 AM 66.2 °F 66.2 °F 100% 30.13 in 10.0 mi NNW 5.8 mph - 0.00 in   Overcast
9:35 AM 69.8 °F 66.2 °F 88% 30.13 in 10.0 mi North 8.1 mph - 0.00 in   Scattered Clouds
9:55 AM 69.8 °F 66.2 °F 88% 30.14 in 10.0 mi NW 4.6 mph - 0.00 in   Mostly Cloudy
10:15 AM 69.8 °F 66.2 °F 88% 30.14 in 10.0 mi NNW 5.8 mph - 0.00 in   Overcast
10:35 AM 69.8 °F 66.2 °F 88% 30.15 in 10.0 mi North 4.6 mph - 0.00 in   Overcast
10:55 AM 69.8 °F 66.2 °F 88% 30.15 in 10.0 mi North 8.1 mph - 0.00 in   Overcast
11:15 AM 71.6 °F 66.2 °F 83% 30.14 in 10.0 mi NNE 5.8 mph - 0.00 in   Overcast
11:35 AM 73.4 °F 66.2 °F 78% 30.13 in 10.0 mi North 3.5 mph - 0.00 in   Overcast
11:55 AM 73.4 °F 64.4 °F 73% 30.13 in 10.0 mi Calm Calm - 0.00 in   Overcast
12:15 PM 73.4 °F 66.2 °F 78% 30.13 in 10.0 mi Calm Calm - 0.00 in   Overcast
12:35 PM 73.4 °F 66.2 °F 78% 30.12 in 10.0 mi NW 5.8 mph - 0.00 in   Mostly Cloudy
12:55 PM 75.2 °F 64.4 °F 69% 30.11 in 10.0 mi NNW 4.6 mph - 0.00 in   Partly Cloudy
1:15 PM 77.0 °F 64.4 °F 65% 30.10 in 10.0 mi North 4.6 mph - 0.00 in   Clear
1:35 PM 78.8 °F 62.6 °F 57% 30.10 in 10.0 mi Calm Calm - 0.00 in   Clear
1:55 PM 77.0 °F 64.4 °F 65% 30.10 in 10.0 mi North 6.9 mph - 0.00 in   Scattered Clouds
2:15 PM 77.0 °F 64.4 °F 65% 30.10 in 10.0 mi NNW 6.9 mph - 0.00 in   Partly Cloudy
2:35 PM 77.0 °F 64.4 °F 65% 30.10 in 5.0 mi North 8.1 mph - 0.00 in   Partly Cloudy
2:55 PM 78.8 °F 64.4 °F 61% 30.09 in 10.0 mi NNE 6.9 mph - 0.00 in   Partly Cloudy
3:15 PM 78.8 °F 64.4 °F 61% 30.09 in 10.0 mi NE 5.8 mph - 0.00 in   Clear
3:35 PM 78.8 °F 64.4 °F 61% 30.09 in 10.0 mi North 5.8 mph - 0.00 in   Clear
3:55 PM 78.8 °F 64.4 °F 61% 30.09 in 9.0 mi NNE 6.9 mph - 0.00 in   Clear
4:15 PM 77.0 °F 64.4 °F 65% 30.09 in 10.0 mi Calm Calm - 0.00 in   Clear
4:35 PM 75.2 °F 64.4 °F 69% 30.09 in 10.0 mi ENE 5.8 mph - 0.00 in   Clear
4:55 PM 73.4 °F 64.4 °F 73% 30.09 in 10.0 mi ENE 4.6 mph - 0.00 in   Partly Cloudy
5:15 PM 73.4 °F 66.2 °F 78% 30.10 in 10.0 mi NNE 4.6 mph - 0.00 in   Mostly Cloudy
5:35 PM 73.4 °F 66.2 °F 78% 30.10 in 10.0 mi North 4.6 mph - 0.00 in   Overcast
5:55 PM 71.6 °F 68.0 °F 88% 30.10 in 10.0 mi North 4.6 mph - 0.00 in   Overcast
6:15 PM 71.6 °F 68.0 °F 88% 30.10 in 10.0 mi North 6.9 mph - 0.00 in   Mostly Cloudy
6:35 PM 69.8 °F 68.0 °F 94% 30.11 in 10.0 mi North 5.8 mph - 0.00 in   Mostly Cloudy
6:55 PM 69.8 °F 68.0 °F 94% 30.11 in 10.0 mi North 5.8 mph - 0.00 in   Mostly Cloudy
7:15 PM 69.8 °F 69.8 °F 100% 30.12 in 10.0 mi North 5.8 mph - 0.00 in   Mostly Cloudy
7:35 PM 69.8 °F 69.8 °F 100% 30.13 in 10.0 mi North 5.8 mph - 0.00 in   Mostly Cloudy
7:55 PM 69.8 °F 68.0 °F 94% 30.14 in 10.0 mi NNE 6.9 mph - 0.00 in   Mostly Cloudy
8:15 PM 68.0 °F 68.0 °F 100% 30.14 in 10.0 mi North 5.8 mph - 0.00 in   Mostly Cloudy
8:35 PM 68.0 °F 68.0 °F 100% 30.15 in 10.0 mi North 6.9 mph - 0.00 in   Mostly Cloudy
8:55 PM 66.2 °F 66.2 °F 100% 30.16 in 10.0 mi NNE 11.5 mph 16.1 mph 0.00 in   Overcast
9:15 PM 66.2 °F 66.2 °F 100% 30.16 in 10.0 mi NNE 11.5 mph - 0.00 in   Overcast
9:35 PM 66.2 °F 66.2 °F 100% 30.17 in 10.0 mi NNE 10.4 mph - 0.00 in   Overcast
9:55 PM 64.4 °F 64.4 °F 100% 30.18 in 10.0 mi NNE 9.2 mph - 0.00 in   Overcast
10:15 PM 64.4 °F 64.4 °F 100% 30.18 in 10.0 mi NNE 9.2 mph - 0.00 in   Mostly Cloudy
10:35 PM 64.4 °F 64.4 °F 100% 30.19 in 10.0 mi NNE 8.1 mph - 0.00 in   Mostly Cloudy
10:55 PM 64.4 °F 64.4 °F 100% 30.19 in 10.0 mi NNE 8.1 mph - 0.00 in   Overcast
11:15 PM 64.4 °F 64.4 °F 100% 30.19 in 10.0 mi NNE 10.4 mph - 0.00 in   Overcast
11:35 PM 64.4 °F 64.4 °F 100% 30.19 in 10.0 mi NNE 9.2 mph - 0.00 in   Overcast
11:55 PM 64.4 °F 64.4 °F 100% 30.19 in 10.0 mi NE 8.1 mph - 0.00 in   Overcast